User: anonymous   Login
Location: Lawrence Hall of Science
(37.8785°N, 122.2415°W)
Time: 03:47:01
(UTC-07:00)
Language:

Cosmos 2098 Rocket - Orbit

View from above orbital plane
View from above orbital plane
View from above satellite
View from above satellite

Ground track
Ground track

The orbit data is extracted from the following two-line orbital elements,

1 20775U 90078B   17142.84796978 +.00003405 +00000-0 +16725-3 0  9994
2 20775 082.9309 068.9675 0590721 060.3650 305.5034 14.30470329345150
Epoch (UTC): 22 May 2017 20:21:04
Eccentricity: 0.0590721
inclination: 82.9309°
perigee height: 367 km
apogee height: 1213 km
right ascension of ascending node: 68.9675°
argument of perigee: 60.3650°
revolutions per day: 14.30470329
mean anomaly at epoch: 305.5034°
orbit number at epoch: 34515

The dashed part of the orbit path shows where the satellite is in the earth's shadow,  

DLR